Regional Weather Roundup
Issued by NWS

Home | Current Version | Previous Version | Graphics & Text | Print | Product List | Glossary On
Versions: 1 2 3 4 5 6 7 8 9 10 11 12 13 14 15 16 17 18 19 20 21 22 23 24 25 26 27 28 29 30 31 32 33 34 35 36 37 38 39 40 41 42 43 44 45 46 47 48 49 50
000
ASUS43 KOAX 040310
RWRNE

WEATHER ROUNDUP FOR NEBRASKA
NATIONAL WEATHER SERVICE OMAHA NE
1000 PM CDT SUN MAY 03 2015

NOTES: SATELLITE DATA IS BEING USED TO AUGMENT CLOUD COVER ABOVE
       12000 FEET.
       "FAIR" INDICATES FEW OR NO CLOUDS BELOW 12,000 FEET WITH NO
       SIGNIFICANT WEATHER AND/OR OBSTRUCTIONS TO VISIBILITY.

  * THESE STATIONS DO NOT REPORT WEATHER SUCH AS RAIN...SNOW OR FOG.

NEZ001>004-019>022-054>056-040400-
NEBRASKA PANHANDLE

CITY           SKY/WX    TMP DP  RH WIND       PRES   REMARKS
SCOTTSBLUFF    CLOUDY    59  41  51 NE12      30.02R
ALLIANCE       CLOUDY    55  41  59 NE9       30.02R
CHADRON        MOCLDY    56  40  55 E8        30.03R
KIMBALL        CLOUDY    55  45  69 NE5       30.02R
SIDNEY         CLOUDY    57  43  59 NE7       30.03R
$$

NEZ057>060-069>072-079>082-040400-
SOUTHWEST NEBRASKA

CITY           SKY/WX    TMP DP  RH WIND       PRES   REMARKS
NORTH PLATTE   CLOUDY    63  40  42 NE18G26   29.93R
IMPERIAL       MOCLDY    65  41  41 NE15      29.95R
LEXINGTON      PTCLDY    67  46  46 N18G24    29.90R
MCCOOK         MOCLDY    70  48  45 N18       29.87R
OGALLALA       CLOUDY    62  40  43 NE13      29.98R
$$

NEZ005>010-023>029-035>040-094-040400-
NORTH CENTRAL NEBRASKA

CITY           SKY/WX    TMP DP  RH WIND       PRES   REMARKS
VALENTINE      MOCLDY    61  34  36 NE14      30.01R
AINSWORTH      PTCLDY    61  35  38 NE14      29.99R
BROKEN BOW     MOCLDY    65  40  39 N18G28    29.93R
O`NEILL        CLEAR     61  40  46 NE9       29.97R
ORD            PTCLDY    64  40  41 N16       29.92R
THEDFORD       PTCLDY    58  41  53 N5        29.99R
$$

NEZ041-046>049-061>064-073>077-083>087-040400-
SOUTH CENTRAL NEBRASKA

CITY           SKY/WX    TMP DP  RH WIND       PRES   REMARKS
GRAND ISLAND   CLEAR     69  45  41 N25G35    29.85R
AURORA         CLEAR     70  49  46 N17G23    29.82R
HASTINGS       CLEAR     71  50  47 N20G28    29.84R
HEBRON         PTCLDY    74  55  52 S12       29.78R
HOLDREGE       PTCLDY    68  47  45 N24G30    29.87R
KEARNEY *      CLEAR     68  46  45 N21       29.88R
YORK           PTCLDY    68  55  64 SE14      29.80R
$$

NEZ011>018-030>034-042>045-040400-
NORTHEAST NEBRASKA

CITY           SKY/WX    TMP DP  RH WIND       PRES   REMARKS
NORFOLK        PTCLDY    69  42  37 N18       29.91R
ALBION         CLEAR     67  42  39 N16G24    29.91R
BLAIR          LGT RAIN  69  55  59 NW5       29.85R
COLUMBUS *     PTCLDY    66  54  63 NE13      29.89R
FREMONT        TSTM      68  55  62 E6        29.85R
TEKAMAH        CLOUDY    68  53  58 N22       29.85R
WAYNE          LGT RAIN  68  45  43 N14       29.92R
$$

NEZ050>053-065>068-078-088>093-040400-
SOUTHEAST NEBRASKA

CITY           SKY/WX    TMP DP  RH WIND       PRES   REMARKS
LINCOLN        CLOUDY    67  57  70 S12       29.80R
OMAHA EPPLEY   CLOUDY    74  57  55 N14       29.82R
BEATRICE       CLOUDY    73  58  61 E10G17    29.83R
FALLS CITY     CLOUDY    76  55  48 S8        29.84R THUNDER
NEBRASKA CITY  CLOUDY    71  49  45 S16G29    29.79F THUNDER
PLATTSMOUTH    CLOUDY    70  49  48 S8        29.81R
$$

NEZ044-045-051>053-067-040400-
OMAHA AREA

CITY           SKY/WX    TMP DP  RH WIND       PRES   REMARKS
OMAHA EPPLEY   CLOUDY    74  57  55 N14       29.82R
BLAIR          LGT RAIN  69  55  59 NW5       29.85R
FREMONT        TSTM      68  55  62 E6        29.85R
MILLARD        CLOUDY    68  63  83 N5        29.82R
PLATTSMOUTH    CLOUDY    70  49  48 S8        29.81R
WAHOO          CLOUDY    72  56  56 N7        29.84R
$$



USA.gov is the U.S. government's official web portal to all federal, state and local government web resources and services.